GW3864 Weather Reports


time (UTC)temp
C
wind
direction
speed
KPH
gust
KPH
rain 1hr
cm
rain 24hr
cm
rain mn
cm
humidity
%
barometer
mb
20260506215207 23 189 4.8 6.4 0.00 0.00 0.00 46 1010.0
20260506214703 23 320 3.2 3.2 0.00 0.00 0.00 47 1010.0
20260506214201 24 317 3.2 4.8 0.00 0.00 0.00 46 1010.0
20260506213659 25 287 1.6 3.2 0.00 0.00 0.00 45 1010.0
20260506213156 23 229 6.4 9.7 0.00 0.00 0.00 46 1010.1
20260506212653 23 53 3.2 3.2 0.00 0.00 0.00 47 1010.0
20260506212148 24 142 6.4 9.7 0.00 0.00 0.00 45 1010.1
20260506211644 23 176 6.4 9.7 0.00 0.00 0.00 45 1010.1
20260506211141 23 209 9.7 11.3 0.00 0.00 0.00 46 1010.2
20260506210638 23 312 3.2 6.4 0.00 0.00 0.00 46 1010.2
20260506210134 23 208 6.4 9.7 0.00 0.00 0.00 47 1010.3
20260506205632 23 184 3.2 3.2 0.00 0.00 0.00 48 1010.6
20260506205126 23 34 1.6 1.6 0.00 0.00 0.00 46 1010.6
20260506204625 23 190 8.0 9.7 0.00 0.00 0.00 49 1010.7
20260506204121 23 207 6.4 9.7 0.00 0.00 0.00 47 1010.4
20260506203619 23 330 9.7 12.9 0.00 0.00 0.00 46 1010.8
20260506203116 23 67 1.6 1.6 0.00 0.00 0.00 49 1010.6
20260506202614 23 194 4.8 4.8 0.00 0.00 0.00 50 1010.8
20260506202109 23 327 9.7 12.9 0.00 0.00 0.00 47 1011.1
20260506201607 22 174 1.6 4.8 0.00 0.00 0.00 47 1010.8
20260506201103 22 21 1.6 3.2 0.00 0.00 0.00 47 1010.8
20260506200600 23 248 3.2 6.4 0.00 0.00 0.00 44 1011.0
20260506200056 22 141 8.0 12.9 0.00 0.00 0.00 48 1010.6
20260506195553 22 103 1.6 1.6 0.00 0.00 0.00 47 1010.8
20260506195049 22 214 8.0 11.3 0.00 0.00 0.00 47 1010.8
20260506194548 22 196 3.2 3.2 0.00 0.00 0.00 46 1010.6
20260506194043 22 157 4.8 9.7 0.00 0.00 0.00 50 1011.0
20260506193541 22 122 8.0 9.7 0.00 0.00 0.00 50 1010.8
20260506193038 22 231 9.7 12.9 0.00 0.00 0.00 49 1011.4
20260506192535 21 140 4.8 6.4 0.00 0.00 0.00 51 1011.3
20260506192031 21 171 4.8 6.4 0.00 0.00 0.00 53 1011.4
20260506191528 22 187 6.4 6.4 0.00 0.00 0.00 50 1011.2
20260506191024 22 206 4.8 6.4 0.00 0.00 0.00 49 1011.3
20260506190521 21 199 8.0 14.5 0.00 0.00 0.00 50 1011.7
20260506190019 21 108 6.4 6.4 0.00 0.00 0.00 51 1011.7
20260506185515 21 147 6.4 9.7 0.00 0.00 0.00 53 1011.6
20260506185012 20 110 4.8 6.4 0.00 0.00 0.00 51 1011.5
20260506184509 20 192 8.0 12.9 0.00 0.00 0.00 50 1011.6
20260506184006 20 152 4.8 6.4 0.00 0.00 0.00 49 1011.7
20260506183501 20 179 1.6 1.6 0.00 0.00 0.00 48 1011.5
20260506182953 20 113 1.6 3.2 0.00 0.00 0.00 49 1011.6
20260506182450 20 219 9.7 12.9 0.00 0.00 0.00 47 1011.5
20260506181948 19 123 8.0 11.3 0.00 0.00 0.00 49 1011.6
20260506181446 19 137 4.8 4.8 0.00 0.00 0.00 47 1011.5
20260506180942 20 214 4.8 4.8 0.00 0.00 0.00 45 1011.6
20260506180438 19 63 0.0 0.0 0.00 0.00 0.00 46 1011.7
20260506175935 19 30 3.2 4.8 0.00 0.00 0.00 46 1011.6
20260506175432 18 146 3.2 3.2 0.00 0.00 0.00 49 1011.6
20260506174928 19 175 9.7 12.9 0.00 0.00 0.00 48 1011.6
20260506174427 19 110 3.2 6.4 0.00 0.00 0.00 46 1012.1
20260506173923 20 133 4.8 4.8 0.00 0.00 0.00 47 1011.9
20260506173420 20 132 0.0 1.6 0.00 0.00 0.00 46 1011.9
20260506172917 18 141 8.0 11.3 0.00 0.00 0.00 49 1011.7
20260506172414 18 143 4.8 4.8 0.00 0.00 0.00 47 1011.9
20260506171911 17 176 4.8 4.8 0.00 0.00 0.00 47 1012.0
20260506171408 18 139 3.2 3.2 0.00 0.00 0.00 47 1012.0
20260506170906 18 123 3.2 4.8 0.00 0.00 0.00 47 1012.0
20260506170401 18 129 1.6 1.6 0.00 0.00 0.00 49 1012.1
20260506165900 17 84 0.0 0.0 0.00 0.00 0.00 49 1012.0
20260506165358 17 136 0.0 1.6 0.00 0.00 0.00 50 1012.1
20260506164849 17 129 3.2 3.2 0.00 0.00 0.00 50 1012.2
20260506164346 16 87 0.0 0.0 0.00 0.00 0.00 47 1012.2
20260506163844 16 157 3.2 4.8 0.00 0.00 0.00 47 1012.2
20260506163338 16 100 0.0 0.0 0.00 0.00 0.00 47 1012.4
20260506162833 16 74 0.0 0.0 0.00 0.00 0.00 45 1012.4
20260506162331 15 165 3.2 3.2 0.00 0.00 0.00 49 1012.0
20260506161823 15 135 4.8 4.8 0.00 0.00 0.00 50 1012.4
20260506161320 15 77 0.0 0.0 0.00 0.00 0.00 47 1012.1
20260506160818 15 121 3.2 4.8 0.00 0.00 0.00 49 1012.2
20260506160314 15 92 0.0 0.0 0.00 0.00 0.00 47 1012.4
20260506155813 15 75 0.0 0.0 0.00 0.00 0.00 47 1012.2
20260506155309 15 75 0.0 1.6 0.00 0.00 0.00 48 1012.5
20260506153421 14 49 3.2 3.2 0.00 0.00 0.00 47 1012.2
20260506152919 14 127 1.6 3.2 0.00 0.00 0.00 48 1012.0
20260506152416 13 71 0.0 0.0 0.00 0.00 0.00 47 1012.6
20260506151915 13 89 1.6 1.6 0.00 0.00 0.00 48 1012.4
20260506151411 13 122 0.0 1.6 0.00 0.00 0.00 50 1012.2
20260506150909 13 142 3.2 4.8 0.00 0.00 0.00 51 1012.4
20260506150404 12 151 3.2 3.2 0.00 0.00 0.00 52 1012.1
20260506145902 13 126 3.2 4.8 0.00 0.00 0.00 51 1012.1
20260506145358 13 146 3.2 4.8 0.00 0.00 0.00 51 1012.4
20260506144855 13 131 1.6 3.2 0.00 0.00 0.00 50 1012.2
20260506144352 12 73 0.0 0.0 0.00 0.00 0.00 51 1012.2
20260506143850 12 127 1.6 3.2 0.00 0.00 0.00 53 1012.1
20260506143347 12 136 1.6 1.6 0.00 0.00 0.00 52 1012.0
20260506142845 12 128 1.6 3.2 0.00 0.00 0.00 55 1012.5
20260506142343 11 95 0.0 0.0 0.00 0.00 0.00 57 1012.0
20260506141841 10 110 0.0 0.0 0.00 0.00 0.00 69 1012.2
20260506141339 10 132 0.0 0.0 0.00 0.00 0.00 71 1012.0
20260506140836 10 58 0.0 0.0 0.00 0.00 0.00 68 1012.1
20260506140333 8 301 0.0 0.0 0.00 0.00 0.00 77 1012.4
20260506135830 8 299 0.0 0.0 0.00 0.00 0.00 78 1012.2
20260506135327 8 299 1.6 1.6 0.00 0.00 0.00 76 1012.1
20260506134823 8 219 0.0 1.6 0.00 0.00 0.00 78 1012.2
20260506134319 7 218 0.0 1.6 0.00 0.00 0.00 79 1012.4
20260506133817 7 13 1.6 1.6 0.00 0.00 0.00 78 1012.2
20260506133313 7 263 1.6 1.6 0.00 0.00 0.00 79 1012.4
20260506132810 7 229 1.6 1.6 0.00 0.00 0.00 78 1012.1
20260506132307 6 335 1.6 1.6 0.00 0.00 0.00 80 1012.1
20260506131805 6 244 1.6 1.6 0.00 0.00 0.00 81 1012.0
20260506131301 6 285 1.6 3.2 0.00 0.00 0.00 79 1012.1
20260506130758 6 295 1.6 1.6 0.00 0.00 0.00 81 1011.9
20260506130255 6 272 0.0 1.6 0.00 0.00 0.00 80 1012.0
20260506125753 6 248 1.6 1.6 0.00 0.00 0.00 80 1012.0
20260506125251 6 288 0.0 0.0 0.00 0.00 0.00 79 1011.8
20260506124749 6 288 1.6 1.6 0.00 0.00 0.00 79 1011.9
20260506124246 6 288 1.6 1.6 0.00 0.00 0.00 79 1011.7
20260506123743 6 278 1.6 1.6 0.00 0.00 0.00 79 1011.8
20260506123242 6 299 1.6 1.6 0.00 0.00 0.00 79 1011.7
20260506122738 6 276 0.0 0.0 0.00 0.00 0.00 78 1011.9
20260506122236 6 265 0.0 0.0 0.00 0.00 0.00 78 1011.6
20260506121734 6 275 1.6 3.2 0.00 0.00 0.00 77 1011.7
20260506121230 6 342 1.6 1.6 0.00 0.00 0.00 76 1011.6
20260506120727 6 238 1.6 1.6 0.00 0.00 0.00 77 1011.6
20260506120225 6 299 1.6 1.6 0.00 0.00 0.00 77 1011.6
20260506115723 6 299 1.6 1.6 0.00 0.00 0.00 76 1011.6
20260506115221 6 295 3.2 4.8 0.00 0.00 0.00 76 1011.4
20260506114718 6 320 1.6 1.6 0.00 0.00 0.00 77 1011.6
20260506114216 6 249 1.6 3.2 0.00 0.00 0.00 77 1011.5
20260506113714 6 279 1.6 3.2 0.00 0.00 0.00 76 1011.4
20260506113211 6 241 0.0 0.0 0.00 0.00 0.00 77 1011.4
20260506112707 7 317 1.6 1.6 0.00 0.00 0.00 78 1011.7
20260506112205 7 294 0.0 0.0 0.00 0.00 0.00 77 1011.5
20260506111702 7 226 1.6 1.6 0.00 0.00 0.00 74 1011.7
20260506111201 7 268 0.0 0.0 0.00 0.00 0.00 76 1011.5
20260506110657 7 241 1.6 1.6 0.00 0.00 0.00 75 1011.6
20260506110155 7 311 1.6 1.6 0.00 0.00 0.00 76 1011.4
20260506105651 7 321 3.2 3.2 0.00 0.00 0.00 76 1011.7
20260506105148 7 299 1.6 1.6 0.00 0.00 0.00 77 1011.5
20260506104646 7 269 1.6 3.2 0.00 0.00 0.00 77 1011.7
20260506104143 7 306 0.0 1.6 0.00 0.00 0.00 74 1011.5
20260506103641 7 335 1.6 1.6 0.00 0.00 0.00 74 1011.5
20260506103137 7 297 1.6 1.6 0.00 0.00 0.00 77 1011.5
20260506102636 7 286 0.0 1.6 0.00 0.00 0.00 78 1011.3
20260506102133 7 289 1.6 1.6 0.00 0.00 0.00 77 1011.4
20260506101629 7 297 1.6 1.6 0.00 0.00 0.00 77 1011.7
20260506101126 7 279 1.6 1.6 0.00 0.00 0.00 77 1011.6
20260506100625 7 298 0.0 0.0 0.00 0.00 0.00 76 1011.5
20260506100122 7 221 1.6 1.6 0.00 0.00 0.00 76 1011.6
20260506095621 7 313 1.6 1.6 0.00 0.00 0.00 77 1011.6
20260506095117 7 283 1.6 1.6 0.00 0.00 0.00 76 1011.4
20260506094615 7 326 1.6 1.6 0.00 0.00 0.00 78 1011.6
20260506094112 7 225 1.6 1.6 0.00 0.00 0.00 78 1011.6
20260506093611 7 314 1.6 3.2 0.00 0.00 0.00 78 1011.6
20260506093108 7 259 1.6 1.6 0.00 0.00 0.00 78 1011.7
20260506092605 7 289 1.6 1.6 0.00 0.00 0.00 78 1011.4
20260506092102 7 296 3.2 3.2 0.00 0.00 0.00 77 1011.4
20260506091600 7 297 0.0 1.6 0.00 0.00 0.00 77 1011.4
20260506091057 7 327 0.0 1.6 0.00 0.00 0.00 77 1011.5
20260506090555 7 290 1.6 3.2 0.00 0.00 0.00 76 1011.5
20260506090051 7 285 1.6 1.6 0.00 0.00 0.00 78 1011.4
20260506085548 7 286 0.0 1.6 0.00 0.00 0.00 77 1011.5
20260506085044 7 305 0.0 1.6 0.00 0.00 0.00 79 1011.5
20260506084542 7 277 1.6 1.6 0.00 0.00 0.00 78 1011.7
20260506084037 7 334 1.6 1.6 0.00 0.00 0.00 77 1011.7
20260506083535 7 337 0.0 1.6 0.00 0.00 0.00 77 1011.5
20260506083032 7 258 1.6 1.6 0.00 0.00 0.00 77 1011.6
20260506082529 7 259 1.6 3.2 0.00 0.00 0.00 77 1011.4
20260506082024 7 261 1.6 3.2 0.00 0.00 0.00 78 1011.4
20260506081523 7 290 1.6 1.6 0.00 0.00 0.00 77 1011.2
20260506081020 7 264 1.6 1.6 0.00 0.00 0.00 78 1011.4
20260506080518 7 282 1.6 1.6 0.00 0.00 0.00 78 1011.2
20260506073501 8 263 1.6 1.6 0.00 0.00 0.00 77 1011.2
20260506072958 8 264 0.0 0.0 0.00 0.00 0.00 77 1011.4
20260506072455 8 264 1.6 1.6 0.00 0.00 0.00 77 1011.2
20260506071953 8 264 0.0 0.0 0.00 0.00 0.00 76 1011.3
20260506071451 8 264 0.0 1.6 0.00 0.00 0.00 75 1011.1
20260506070947 8 263 1.6 1.6 0.00 0.00 0.00 77 1011.1
20260506070444 8 263 0.0 0.0 0.00 0.00 0.00 76 1011.2
20260506062422 8 258 0.0 0.0 0.00 0.00 0.00 75 1010.8
20260506061918 8 258 1.6 1.6 0.00 0.00 0.00 74 1010.8
20260506061415 8 258 0.0 1.6 0.00 0.00 0.00 74 1010.8
20260506060913 8 258 0.0 1.6 0.00 0.00 0.00 74 1010.8
20260506060410 9 258 0.0 1.6 0.00 0.00 0.00 73 1010.7
20260506051342 10 252 1.6 1.6 0.00 0.00 0.00 73 1010.2
20260506050840 10 252 1.6 1.6 0.00 0.00 0.00 74 1010.2
20260506050337 10 252 1.6 1.6 0.00 0.00 0.00 74 1010.4
20260506044827 10 251 1.6 1.6 0.00 0.00 0.00 71 1010.3
20260506044325 10 250 1.6 1.6 0.00 0.00 0.00 72 1010.3
20260506043822 10 251 3.2 3.2 0.00 0.00 0.00 70 1010.2
20260506043320 10 253 1.6 1.6 0.00 0.00 0.00 70 1010.1
20260506042818 10 243 1.6 1.6 0.00 0.00 0.00 71 1009.9
20260506042317 10 239 1.6 1.6 0.00 0.00 0.00 71 1010.1
20260506041815 10 250 1.6 1.6 0.00 0.00 0.00 70 1010.0
20260506041311 10 248 1.6 1.6 0.00 0.00 0.00 71 1010.1
20260506040809 11 255 1.6 1.6 0.00 0.00 0.00 71 1009.9
20260506040306 11 255 1.6 1.6 0.00 0.00 0.00 69 1009.9
20260506035802 11 255 1.6 1.6 0.00 0.00 0.00 69 1009.8
20260506035259 11 251 1.6 1.6 0.00 0.00 0.00 70 1010.0
20260506034756 11 261 0.0 0.0 0.00 0.00 0.00 69 1009.8
20260506034254 11 264 1.6 1.6 0.00 0.00 0.00 68 1009.9
20260506033750 11 264 1.6 1.6 0.00 0.00 0.00 68 1009.9
20260506033247 11 265 1.6 1.6 0.00 0.00 0.00 69 1009.7
20260506032744 12 265 1.6 1.6 0.00 0.00 0.00 68 1009.8
20260506032241 12 247 1.6 1.6 0.00 0.00 0.00 67 1009.8
20260506031738 12 259 3.2 3.2 0.00 0.00 0.00 65 1009.7
20260506031235 12 253 1.6 3.2 0.00 0.00 0.00 64 1009.7
20260506030733 12 232 0.0 1.6 0.00 0.00 0.00 63 1009.8
20260506030230 13 256 1.6 1.6 0.00 0.00 0.00 63 1009.5
20260506025722 13 251 0.0 1.6 0.00 0.00 0.00 62 1009.7
20260506025218 13 251 1.6 1.6 0.00 0.00 0.00 59 1009.5
20260506024715 14 235 3.2 3.2 0.00 0.00 0.00 59 1009.7
20260506024212 14 210 1.6 1.6 0.00 0.00 0.00 57 1009.6
20260506023708 15 173 1.6 1.6 0.00 0.00 0.00 57 1009.5
20260506023205 15 171 1.6 1.6 0.00 0.00 0.00 56 1009.7
20260506022702 15 168 1.6 1.6 0.00 0.00 0.00 54 1009.7
20260506022200 16 168 1.6 1.6 0.00 0.00 0.00 51 1009.6
20260506021657 16 142 0.0 1.6 0.00 0.00 0.00 53 1009.8
20260506021154 17 130 0.0 0.0 0.00 0.00 0.00 52 1009.6
20260506020651 18 130 0.0 0.0 0.00 0.00 0.00 50 1009.6
20260506020149 20 130 0.0 0.0 0.00 0.00 0.00 45 1009.5
20260506015646 20 131 0.0 0.0 0.00 0.00 0.00 43 1009.3
20260506015144 20 131 0.0 0.0 0.00 0.00 0.00 41 1009.3
20260506014641 20 117 0.0 0.0 0.00 0.00 0.00 35 1009.6
20260506014136 20 78 0.0 0.0 0.00 0.00 0.00 34 1009.7
20260506013635 20 145 0.0 1.6 0.00 0.00 0.00 36 1009.6
20260506013131 20 140 1.6 1.6 0.00 0.00 0.00 33 1009.5
20260506012627 20 104 3.2 3.2 0.00 0.00 0.00 35 1009.7
20260506012124 20 92 0.0 0.0 0.00 0.00 0.00 33 1009.6
20260506011622 20 81 0.0 1.6 0.00 0.00 0.00 33 1009.7
20260506011117 20 106 1.6 1.6 0.00 0.00 0.00 32 1009.7
20260506010611 20 171 6.4 6.4 0.00 0.00 0.00 33 1009.5
20260506010108 20 178 4.8 4.8 0.00 0.00 0.00 31 1009.8
20260506005605 20 107 4.8 6.4 0.00 0.00 0.00 31 1009.3
20260506005101 21 95 0.0 0.0 0.00 0.00 0.00 34 1009.7
20260506004558 21 87 0.0 0.0 0.00 0.00 0.00 32 1009.8
20260506004055 21 79 0.0 0.0 0.00 0.00 0.00 33 1009.5
20260506003551 21 87 0.0 0.0 0.00 0.00 0.00 34 1009.8
20260506003048 20 87 1.6 1.6 0.00 0.00 0.00 31 1009.5
20260506002543 21 99 1.6 1.6 0.00 0.00 0.00 31 1009.7
20260506002039 21 95 3.2 4.8 0.00 0.00 0.00 33 1009.7
20260506001536 21 90 1.6 1.6 0.00 0.00 0.00 32 1009.6
20260506001033 21 103 1.6 3.2 0.00 0.00 0.00 31 1009.5
20260506000531 21 74 0.0 0.0 0.00 0.00 0.00 34 1009.9
20260506000028 21 127 3.2 4.8 0.00 0.00 0.00 31 1009.8
20260505235521 21 29 12.9 14.5 0.00 0.00 0.00 31 1009.9
20260505235017 21 133 6.4 9.7 0.00 0.00 0.00 34 1010.1
20260505234514 21 142 6.4 9.7 0.00 0.00 0.00 32 1010.0
20260505234011 21 139 6.4 6.4 0.00 0.00 0.00 30 1010.1
20260505233508 21 342 1.6 1.6 0.00 0.00 0.00 31 1010.1
20260505233006 22 81 1.6 3.2 0.00 0.00 0.00 33 1010.2
20260505232503 22 104 0.0 1.6 0.00 0.00 0.00 33 1010.0
20260505232001 22 192 4.8 4.8 0.00 0.00 0.00 30 1010.1
20260505231457 21 178 8.0 9.7 0.00 0.00 0.00 31 1010.0
20260505230956 21 66 3.2 4.8 0.00 0.00 0.00 33 1010.3
20260505230453 22 16 4.8 4.8 0.00 0.00 0.00 31 1010.2
20260505225949 22 92 0.0 0.0 0.00 0.00 0.00 30 1010.4
20260505225446 22 16 6.4 9.7 0.00 0.00 0.00 31 1010.3
20260505224942 22 1 3.2 6.4 0.00 0.00 0.00 29 1010.3
20260505224439 22 97 0.0 0.0 0.00 0.00 0.00 32 1010.5
20260505223937 22 80 1.6 3.2 0.00 0.00 0.00 33 1010.4
20260505223433 21 95 1.6 1.6 0.00 0.00 0.00 34 1010.6
20260505222930 21 106 6.4 9.7 0.00 0.00 0.00 34 1010.5
20260505222426 21 178 6.4 6.4 0.00 0.00 0.00 32 1010.6
20260505221922 22 87 0.0 0.0 0.00 0.00 0.00 33 1011.0
20260505221420 22 137 4.8 4.8 0.00 0.00 0.00 32 1010.6
20260505220917 21 137 3.2 3.2 0.00 0.00 0.00 31 1010.7
20260505220414 21 20 11.3 14.5 0.00 0.00 0.00 30 1010.8
20260505215911 21 50 3.2 4.8 0.00 0.00 0.00 32 1011.0